Flag for Russia Weather past 2 weeks in Sochi, Russia

Now
52 °F

Sprinkles. Mostly cloudy.


Feels Like: 48 °F
Forecast: 39 / 53 °F
Wind: 10 mph from Southeast

Location: Adler

Current Time: Dec 22, 2014 at 2:36:48 AM

Latest Report: Dec 22, 2014 at 2:00 AM


Visibility: N/A

Pressure: 29.92 "Hg

Humidity: 82%

Dew point: 46 °F

Location of SochiLocation

Historic Weather in Sochi — Graph

°F

Sochi temperature yesterday

Maximum temperature yesterday: 55 °F (at 12:00 PM)
Minimum temperature yesterday: 45 °F (at 1:00 AM)
Average temperature yesterday: 50 °F

Past Weeks' High & Low Weather Summary

 TemperatureHumidityPressure
High72 °F (Dec 9, 4:00 PM)94% (Dec 11, 10:30 AM)30.33 "Hg (Dec 11, 10:30 AM)
Low39 °F (Dec 7, 7:30 AM)25% (Dec 9, 4:00 PM)29.92 "Hg (Dec 9, 9:00 PM)
Average52 °F72%30.13 "Hg
* Reported Dec 7 1:00 AM — Dec 22 1:30 AM, Sochi, Weather by CustomWeather, © 2014

Note: Actual official high and low records may vary slightly from our data, if they occured in-between our weather recording intervals... More about our weather records

Advertising

Sochi weather history for previous 24 hours

 ConditionsComfort  
Time TempWeatherWind HumidityBarometerVisibility
1:30 AM
Dec 22
50 °FSprinkles. Mostly cloudy.6 mph82%29.92 "Hg6 mi
1:00 AM52 °FSprinkles. Overcast.6 mph88%29.92 "HgN/A
12:30 AM50 °FSprinkles. Overcast.6 mph88%29.92 "HgN/A
12:00 AM50 °FMostly cloudy.3 mph88%29.92 "HgN/A
11:30 PM
Dec 21
50 °FMostly cloudy.3 mph82%29.95 "HgN/A
11:00 PM50 °FMostly cloudy.3 mph88%29.92 "HgN/A
10:30 PM50 °FMostly cloudy.6 mph88%29.92 "HgN/A
10:00 PM50 °FMostly cloudy.3 mph88%29.95 "Hg6 mi
9:30 PM50 °FMostly cloudy.3 mph88%29.95 "HgN/A
9:00 PM52 °FMostly cloudy.1 mph82%29.95 "HgN/A
8:30 PM52 °FMostly cloudy.6 mph82%29.98 "Hg6 mi
8:00 PM52 °FMostly cloudy.3 mph88%29.98 "HgN/A
7:30 PM52 °FMostly cloudy.3 mph88%29.98 "HgN/A
7:00 PM52 °FMostly cloudy.3 mph88%29.98 "HgN/A
6:30 PM52 °FMostly cloudy.3 mph88%29.98 "HgN/A
6:00 PM52 °FMostly cloudy.3 mph88%29.98 "HgN/A
5:30 PM52 °FMore clouds than sun.3 mph88%30.01 "HgN/A
5:00 PM54 °FBroken clouds.3 mph82%30.01 "HgN/A
4:30 PM54 °FBroken clouds.3 mph82%30.01 "HgN/A
4:00 PM54 °FBroken clouds.3 mph82%30.01 "HgN/A
3:30 PM54 °FBroken clouds.6 mph82%30.01 "HgN/A
3:00 PM54 °FBroken clouds.8 mph82%30.01 "HgN/A
2:30 PM55 °FBroken clouds.8 mph77%30.01 "HgN/A
2:00 PM55 °FBroken clouds.10 mph77%30.04 "HgN/A
1:30 PM55 °FBroken clouds.8 mph77%30.04 "HgN/A
1:00 PM55 °FBroken clouds.8 mph77%30.04 "HgN/A
12:30 PM54 °FBroken clouds.8 mph77%30.07 "HgN/A
12:00 PM55 °FBroken clouds.8 mph72%30.07 "HgN/A
11:30 AM54 °FBroken clouds.8 mph77%30.07 "HgN/A
11:00 AM54 °FBroken clouds.6 mph72%30.09 "HgN/A
10:30 AM50 °FBroken clouds.3 mph76%30.09 "HgN/A
10:00 AM52 °FBroken clouds.6 mph72%30.09 "HgN/A
9:30 AM48 °FBroken clouds.8 mph82%30.09 "HgN/A
9:00 AM48 °FBroken clouds.10 mph82%30.09 "HgN/A
8:30 AM46 °FOvercast.8 mph82%30.09 "HgN/A
8:00 AM46 °FOvercast.10 mph82%30.09 "HgN/A
7:30 AM46 °FMostly cloudy.10 mph82%30.09 "HgN/A
7:00 AM46 °FPartly cloudy.10 mph82%30.09 "HgN/A
6:30 AM45 °FPartly cloudy.8 mph87%30.09 "HgN/A
5:30 AM45 °FPartly cloudy.10 mph81%30.09 "HgN/A
5:00 AM45 °FPassing clouds.3 mph87%30.09 "HgN/A
4:30 AM45 °FPartly cloudy.3 mph87%30.09 "HgN/A
4:00 AM45 °FPartly cloudy.3 mph87%30.09 "HgN/A
3:30 AM45 °FPassing clouds.8 mph87%30.09 "HgN/A
3:00 AM46 °FPartly cloudy.8 mph82%30.09 "HgN/A
2:30 AM45 °FPartly cloudy.10 mph87%30.12 "HgN/A
2:00 AM46 °FMostly cloudy.13 mph82%30.12 "HgN/A
Weather by CustomWeather, © 2014

See weather overviewHow to use our weather pages